Weather History for Santorini Island, Greece

Change the Weather History Date:

Saturday, January 26, 2013

  Actual Average Record
Temperature  
Mean Temperature 56 °F -  
Max Temperature 60 °F 56 °F 66 °F (2005)
Min Temperature 53 °F 48 °F 39 °F (2006)
Degree Days  
Heating Degree Days 8    
Growing Degree Days 6 (Base 50)    
Moisture  
Dew Point 44 °F    
Average Humidity 62    
Maximum Humidity 82    
Minimum Humidity 52    
Precipitation  
Precipitation 0.00 in - - ()
Sea Level Pressure  
Sea Level Pressure 29.58 in    
Wind  
Wind Speed 17 mph ()    
Max Wind Speed 25 mph    
Max Gust Speed 40 mph    
Visibility 6.2 miles    
Events Rain    
Averages and records for this station are not official NWS values.
T = Trace of Precipitation, MM = Missing Value Source: Averaged Metar Reports

Daily Weather History Graph

Daily Weather History Graph

Search for Another Location

Airport:

Trip Planner

Search our weather history database for the weather conditions in past years. The results will help you decide how hot, cold, wet, or windy it might be!

Date:

Astronomy

Jan. 26, 2013 Rise Set
Actual Time 7:23 AM EET 5:37 PM EET
Civil Twilight 6:56 AM EET 6:05 PM EET
Nautical Twilight 6:25 AM EET 6:36 PM EET
Astronomical Twilight 5:54 AM EET 7:07 PM EET
Moon 5:13 PM EET (1/26) 6:30 AM EET (1/26)
Length of Visible Light 11h 09m
Length of Day
10h 14m
Waxing Gibbous, 99% of the Moon is Illuminated
Jan 26
Waxing Gibbous
Jan 27
Full
Feb 3
Last Quarter
Feb 10
New
Feb 17
First Quarter

Hourly Weather History & Observations

Time (EET) Temp. Dew Point Humidity Pressure Visibility Wind Dir Wind Speed Gust Speed Precip Events Conditions
12:20 AM 53.6 °F 46.4 °F 77% 29.65 in - North - - N/A   Unknown
12:50 AM 53.6 °F 46.4 °F 77% 29.65 in - North - - N/A Rain Light Rain
1:20 AM 53.6 °F 48.2 °F 82% 29.65 in - North - - N/A Rain Light Rain
1:50 AM 53.6 °F 48.2 °F 82% 29.62 in - North - - N/A Rain Light Rain
2:20 AM 55.4 °F 44.6 °F 67% 29.62 in - North - - N/A   Unknown
2:50 AM 55.4 °F 44.6 °F 67% 29.62 in - North - - N/A Rain Light Rain
3:20 AM 55.4 °F 44.6 °F 67% 29.59 in - North - - N/A   Unknown
3:50 AM 57.2 °F 44.6 °F 63% 29.59 in - North - - N/A   Unknown
4:20 AM 57.2 °F 44.6 °F 63% 29.56 in - North - - N/A   Unknown
4:50 AM - - N/A% 0.00 in - North - - N/A   Unknown
5:20 AM 57.2 °F 44.6 °F 63% 29.56 in - North - - N/A   Unknown
5:50 AM 55.4 °F 41.0 °F 58% 29.53 in - North - - N/A Rain Light Rain
6:20 AM 55.4 °F 42.8 °F 63% 29.56 in - North - - N/A   Unknown
6:50 AM 55.4 °F 42.8 °F 63% 29.56 in 6.2 mi South 23.0 mph 34.5 mph N/A   Mostly Cloudy
7:20 AM 55.4 °F 42.8 °F 63% 29.53 in 6.2 mi South 25.3 mph 40.3 mph N/A   Mostly Cloudy
7:50 AM 53.6 °F 42.8 °F 67% 29.53 in 6.2 mi South 25.3 mph 40.3 mph N/A   Mostly Cloudy
8:20 AM 57.2 °F 42.8 °F 59% 29.56 in 6.2 mi SSE 23.0 mph 36.8 mph N/A   Mostly Cloudy
8:50 AM 57.2 °F 42.8 °F 59% 29.56 in 6.2 mi SSE 23.0 mph 34.5 mph N/A   Mostly Cloudy
9:20 AM 57.2 °F 42.8 °F 59% 29.56 in 6.2 mi SSE 19.6 mph 31.1 mph N/A   Mostly Cloudy
9:50 AM 59.0 °F 42.8 °F 55% 29.56 in 6.2 mi SSE 23.0 mph 34.5 mph N/A   Mostly Cloudy
10:20 AM 59.0 °F 44.6 °F 59% 29.56 in 6.2 mi South 20.7 mph 32.2 mph N/A   Mostly Cloudy
10:50 AM 59.0 °F 42.8 °F 55% 29.56 in 6.2 mi South 23.0 mph 34.5 mph N/A   Mostly Cloudy
11:20 AM 59.0 °F 44.6 °F 59% 29.56 in 6.2 mi Variable 13.8 mph - N/A   Mostly Cloudy
11:50 AM 59.0 °F 44.6 °F 59% 29.56 in 6.2 mi SW 13.8 mph 25.3 mph N/A   Mostly Cloudy
12:20 PM 59.0 °F 44.6 °F 59% 29.56 in 6.2 mi Variable 13.8 mph - N/A   Mostly Cloudy
12:50 PM 60.8 °F 44.6 °F 55% 29.56 in 6.2 mi SW 16.1 mph - N/A   Mostly Cloudy
1:20 PM 60.8 °F 42.8 °F 52% 29.53 in 6.2 mi SSW 13.8 mph 25.3 mph N/A   Mostly Cloudy
1:50 PM 60.8 °F 42.8 °F 52% 29.53 in 6.2 mi SSW 11.5 mph 23.0 mph N/A   Mostly Cloudy
2:20 PM 59.0 °F 44.6 °F 59% 29.56 in 6.2 mi SSW 13.8 mph 25.3 mph N/A   Mostly Cloudy
2:50 PM 59.0 °F 44.6 °F 59% 29.56 in 6.2 mi SSW 13.8 mph 25.3 mph N/A   Mostly Cloudy
3:20 PM 57.2 °F 44.6 °F 63% 29.56 in 6.2 mi SW 16.1 mph 27.6 mph N/A   Mostly Cloudy
3:50 PM 59.0 °F 42.8 °F 55% 29.56 in 6.2 mi SW 16.1 mph - N/A   Mostly Cloudy
4:20 PM 59.0 °F 42.8 °F 55% 29.56 in 6.2 mi SSW 16.1 mph - N/A   Mostly Cloudy
4:50 PM 59.0 °F 46.4 °F 63% 29.56 in 6.2 mi South 16.1 mph - N/A   Mostly Cloudy
5:20 PM 59.0 °F 46.4 °F 63% 29.56 in 6.2 mi South 13.8 mph - N/A   Mostly Cloudy
5:50 PM 57.2 °F 42.8 °F 59% 29.56 in - North - - N/A   Unknown
6:20 PM 57.2 °F 42.8 °F 59% 29.59 in - North - - N/A Rain Light Rain
6:50 PM 57.2 °F 46.4 °F 67% 29.59 in - North - - N/A Rain Light Rain
7:20 PM 57.2 °F 46.4 °F 67% 29.59 in - North - - N/A Rain Light Rain
7:50 PM 57.2 °F 46.4 °F 67% 29.59 in - North - - N/A Rain Light Rain
8:20 PM 57.2 °F 46.4 °F 67% 29.59 in - North - - N/A Rain Light Rain
8:50 PM 57.2 °F 46.4 °F 67% 29.62 in - North - - N/A Rain Light Rain
9:20 PM 57.2 °F 44.6 °F 63% 29.62 in - North - - N/A   Unknown
9:50 PM 57.2 °F 42.8 °F 59% 29.62 in - North - - N/A   Unknown
10:20 PM 57.2 °F 42.8 °F 59% 29.62 in - North - - N/A   Unknown
10:50 PM 57.2 °F 42.8 °F 59% 29.65 in - North - - N/A Rain Light Rain
11:20 PM 57.2 °F 41.0 °F 55% 29.65 in - North - - N/A   Unknown
11:50 PM 57.2 °F 42.8 °F 59% 29.65 in - North - - N/A   Unknown